Wind_Speed
18 21 25 25 25 29 28 38 39 30 26 31 31 33 44 40 39 40 39 41 40 36
14 20 21 25 24 27 30 35 39 36 40 35 33 36 43 41 43 38 35 37 34 34
13 11 15 17 24 27 29 30 31 30 36 41 35 32 34 31 31 35 32 30 31 32
13 4 8 14 18 23 22 24 22 24 28 25 29 28 27 26 27 27 26 26 27 27
16 14 11 15 17 23 22 22 21 23 26 23 17 24 24 26 26 26 25 24 23 23
12 19 17 15 22 19 24 24 21 20 24 23 18 17 19 19 21 23 22 21 22 21
8 13 19 19 22 25 21 31 32 27 23 20 17 16 17 15 16 16 16 16 15 18
0 2 6 18 21 26 27 26 30 31 31 26 25 22 18 19 21 22 20 18 17 16
7 5 3 7 16 26 26 26 24 22 34 26 14 15 16 16 17 17 18 18 18 18
9 10 7 6 10 19 20 18 16 15 16 22 18 22 22 21 21 23 22 21 20 19
11 13 9 7 7 10 15 17 17 16 17 21 21 22 22 25 24 21 19 17 18 23
11 11 12 13 11 12 10 17 19 19 17 15 21 19 18 19 18 19 17 13 12 12
11 10 12 12 12 13 15 17 17 14 13 12 14 11 14 15 14 15 19 16 15 16
10 12 13 12 12 12 14 15 16 16 16 14 13 13 11 10 11 11 12 11 12 13
Wind_Direction
261 256 252 243 254 262 250 229 218 217 202 192 188 197 219 212 211 212 216 213 216 218
278 274 257 249 235 246 234 223 218 210 206 202 196 201 213 209 213 209 216 214 217 219
268 270 255 246 228 212 198 190 184 178 192 201 187 185 196 198 205 207 209 211 215 219
255 267 286 246 226 198 178 182 187 182 160 159 173 177 188 201 205 206 208 210 212 214
252 232 230 226 224 214 196 182 175 179 189 163 166 180 190 193 198 201 204 205 204 207
262 241 232 227 204 203 200 184 166 152 161 164 168 179 178 186 196 201 205 206 206 209
256 247 239 231 219 201 184 195 180 151 148 158 160 163 181 183 191 197 200 204 208 214
182 348 227 227 223 196 197 195 196 191 169 177 182 190 194 195 196 195 194 200 208 209
48 38 92 180 190 193 196 199 199 203 188 191 182 182 183 189 190 195 198 197 197 203
59 55 63 97 169 176 179 180 187 192 192 197 191 186 197 199 203 197 199 205 203 209
54 78 52 103 124 162 175 172 163 170 175 190 197 206 207 211 211 217 213 206 225 233
74 81 81 85 106 117 121 177 167 179 193 219 208 211 209 207 199 204 219 203 208 202
67 75 96 99 100 100 109 126 148 143 138 141 144 160 176 185 188 188 185 204 212 207
85 90 91 102 107 109 114 123 125 123 118 123 132 135 144 153 166 175 174 170 168 175
Height
1412 1410 1410 1410 1408 1412 1415 1420 1426 1430 1432 1436 1439 1452 1464 1471 1474 1480 1487 1492 1498 1503
1408 1405 1403 1403 1403 1407 1410 1414 1420 1423 1428 1431 1437 1444 1454 1462 1469 1477 1485 1490 1493 1500
1406 1403 1401 1401 1403 1405 1407 1410 1413 1418 1422 1428 1433 1437 1451 1460 1469 1477 1483 1487 1491 1497
1406 1402 1402 1398 1404 1405 1404 1407 1411 1415 1417 1425 1432 1439 1448 1459 1468 1474 1478 1484 1488 1492
1405 1404 1403 1403 1403 1406 1407 1410 1413 1415 1420 1426 1432 1440 1449 1459 1467 1472 1476 1480 1484 1489
1402 1403 1403 1403 1404 1408 1411 1413 1415 1419 1422 1426 1433 1441 1448 1456 1464 1469 1474 1477 1481 1487
1401 1401 1402 1403 1405 1409 1412 1416 1421 1423 1428 1433 1439 1444 1451 1457 1461 1467 1472 1477 1480 1486
1402 1402 1401 1402 1404 1409 1414 1417 1421 1425 1431 1436 1442 1447 1452 1458 1463 1467 1470 1474 1479 1483
1404 1402 1401 1402 1404 1409 1414 1417 1422 1426 1431 1437 1441 1446 1452 1457 1460 1463 1468 1472 1477 1480
1407 1407 1406 1406 1407 1411 1414 1418 1423 1426 1431 1437 1441 1446 1450 1453 1457 1462 1467 1471 1475 1478
1413 1412 1410 1410 1411 1413 1416 1420 1424 1428 1431 1435 1439 1443 1447 1451 1456 1459 1462 1466 1470 1472
1419 1418 1418 1417 1417 1419 1419 1421 1424 1428 1432 1435 1437 1441 1446 1451 1453 1456 1460 1463 1467 1469
1423 1424 1423 1423 1424 1424 1422 1422 1425 1428 1431 1434 1438 1442 1446 1449 1452 1454 1458 1461 1465 1468
1427 1428 1428 1427 1427 1427 1426 1428 1430 1431 1433 1437 1441 1444 1447 1450 1453 1455 1458 1461 1464 1468